TimeCDT,TemperatureF,Dew PointF,Humidity,Sea Level PressureIn,VisibilityMPH,Wind Direction,Wind SpeedMPH,Gust SpeedMPH,PrecipitationIn,Events,Conditions,WindDirDegrees,DateUTC
1:53 AM,73.0,64.9,76,29.81,10.0,South,12.7,-,N/A,,Clear,190,2012-10-24 06:53:00
2:53 AM,72.0,64.9,78,29.81,10.0,South,11.5,-,N/A,,Clear,190,2012-10-24 07:53:00
3:53 AM,71.1,64.9,81,29.81,10.0,South,11.5,-,N/A,,Clear,180,2012-10-24 08:53:00
4:53 AM,70.0,64.9,84,29.80,10.0,South,11.5,-,N/A,,Clear,190,2012-10-24 09:53:00
5:53 AM,70.0,64.9,84,29.81,10.0,South,11.5,-,N/A,,Clear,180,2012-10-24 10:53:00
6:53 AM,69.1,64.9,87,29.83,10.0,South,10.4,-,N/A,,Clear,170,2012-10-24 11:53:00
7:53 AM,69.1,64.9,87,29.84,10.0,South,13.8,20.7,N/A,,Clear,180,2012-10-24 12:53:00
8:53 AM,71.1,64.9,81,29.84,10.0,South,17.3,25.3,N/A,,Clear,180,2012-10-24 13:53:00
9:53 AM,72.0,64.9,78,29.84,10.0,South,16.1,27.6,N/A,,Partly Cloudy,180,2012-10-24 14:53:00
10:30 AM,73.4,66.2,78,29.86,10.0,South,20.7,28.8,N/A,,Mostly Cloudy,190,2012-10-24 15:30:00
10:53 AM,75.9,66.0,71,29.84,10.0,SSW,20.7,28.8,N/A,,Mostly Cloudy,200,2012-10-24 15:53:00
11:00 AM,75.2,66.2,73,29.86,10.0,South,23.0,31.1,N/A,,Mostly Cloudy,180,2012-10-24 16:00:00
11:53 AM,78.1,66.0,66,29.83,10.0,South,19.6,26.5,N/A,,Mostly Cloudy,190,2012-10-24 16:53:00
12:53 PM,75.9,66.0,71,29.83,10.0,South,16.1,27.6,N/A,,Overcast,190,2012-10-24 17:53:00
1:53 PM,77.0,66.0,69,29.81,10.0,South,23.0,31.1,N/A,,Overcast,180,2012-10-24 18:53:00
2:53 PM,75.0,64.9,71,29.79,10.0,South,18.4,24.2,N/A,,Overcast,180,2012-10-24 19:53:00
3:53 PM,75.0,64.9,71,29.78,10.0,South,18.4,27.6,N/A,,Overcast,180,2012-10-24 20:53:00
4:53 PM,73.9,64.9,73,29.76,10.0,South,18.4,27.6,N/A,,Overcast,170,2012-10-24 21:53:00
5:53 PM,75.0,64.9,71,29.74,10.0,South,16.1,27.6,N/A,,Overcast,170,2012-10-24 22:53:00
6:53 PM,73.9,64.0,71,29.73,10.0,South,17.3,24.2,N/A,,Mostly Cloudy,180,2012-10-24 23:53:00
7:00 PM,73.4,64.4,73,29.75,10.0,South,15.0,27.6,N/A,,Scattered Clouds,180,2012-10-25 00:00:00
7:53 PM,73.9,64.9,73,29.73,10.0,South,15.0,26.5,N/A,,Clear,170,2012-10-25 00:53:00
8:53 PM,73.0,64.9,76,29.70,10.0,SSE,13.8,23.0,N/A,,Clear,160,2012-10-25 01:53:00
9:53 PM,73.9,63.0,68,29.70,10.0,South,17.3,26.5,N/A,,Clear,180,2012-10-25 02:53:00
10:53 PM,75.0,63.0,66,29.70,10.0,South,19.6,33.4,N/A,,Clear,190,2012-10-25 03:53:00
11:53 PM,73.9,62.1,66,29.68,10.0,South,20.7,29.9,N/A,,Clear,180,2012-10-25 04:53:00